Location: ??????????
(44.2167°N, 135.5333°E)
Time: 15:13:32
(UTC+00:00)

Cosmos 2227 - Pass Details

Date: 15 June 2025
Orbit: 834 x 859 km, 71.0° (Epoch: 16 July)

Event Time Altitude Azimuth Distance (km) Brightness Sun altitude
Exits shadow 13:50:30 40° 181° (S) 1,206 4.5 -20.7°
Maximum altitude 13:52:28 69° 112° (ESE) 894 4.1 -20.8°
Drops below altitude 10° 13:58:03 10° 30° (NNE) 2,452 7.2 -21.0°
Sets 14:00:30 0° 28° (NNE) 3,390 8.1 -21.2°
